Starlink 5455

operational
NORAD ID: 55668 Int'l Des: 2023-021 Owner: SPXS Country: US Constellation: starlink
LEOCIRCULAR

Über Starlink 5455

Beschreibung wird geladen...

Live-Position

3D-Globus wird geladen...

Nächste Überflüge

Höhenverlauf

Altitude vs Time

uPlot chart will show altitude changes over time

Zweizeiliger Elementsatz

1 55668U 23021AS 25308.18493574 -.00000904 00000-0 -67996-4 0 9993
2 55668 69.9984 120.9583 0003018 271.6428 88.4385 14.98327840150487
Epoch: 4. Nov. 2025 • Age: 17 hours

Aktueller Status

Höhe 577.9 km
Geschwindigkeit 7.57 km/s
Subsatellitenpunkt -18.24°S, 58.55°W
Startdatum 17. Feb. 2023
Alter 2.7 years
Typ internet

Technische Details

Klassifizierung Payload
Masse 305.00 kg
Trockenmasse 290.00 kg
Gesamtmasse 305.00 kg
Länge 0.20 m
Durchmesser 2.80 m
Spannweite 9.00 m
Form Box + pan
Hersteller SPXS
Bus-Typ Starlink
Phasenstatus In Orbit
Besitzer/Staat SPXS/US

Große Konstellationen

Loading constellations...